Home   Weather   Kazan   Past weeks

Flag for Russia Past Weather in Kazan, Russia — Yesterday and Last 2 Weeks

Now
23 °F

Clear.


Feels Like: 11 °F
Forecast: 20 / 30 °F
Wind: 13 mph from West

Location: Kazan'

Current Time: Feb 26, 2017 at 6:28:22 am

Latest Report: Feb 26, 2017 at 5:30 am


Visibility: 10 mi

Pressure: 29.45 "Hg

Humidity: 80%

Dew Point: 18 °F

Location of KazanLocation

Past Weather in Kazan — Graph

°F

Kazan Temperature Yesterday

Maximum temperature yesterday: 37 °F (at 12:30 pm)
Minimum temperature yesterday: 30 °F (at 11:30 pm)
Average temperature yesterday: 34 °F

High & Low Weather Summary for the Past Weeks

 TemperatureHumidityPressure
High37 °F (Feb 21, 7:30 pm)100% (Feb 12, 6:00 pm)30.42 "Hg (Feb 12, 6:00 pm)
Low3 °F (Feb 16, 4:00 am)58% (Feb 17, 11:30 am)29.27 "Hg (Feb 25, 5:30 am)
Average24 °F87%29.77 "Hg
* Reported Feb 11 5:00 am — Feb 26 5:00 am, Kazan, Weather by CustomWeather, © 2017

Note: Actual official high and low records may vary slightly from our data, if they occured in-between our weather recording intervals... More about our weather records

Advertising

Kazan Weather History for the Previous 24 Hours

Scroll right to see more
 ConditionsComfort  
Time TempWeatherWind HumidityBarometerVisibility
5:00 am
Sun, Feb 26
23 °FClear.13 mph86%29.42 "Hg10 mi
4:30 am25 °FPassing clouds.13 mph86%29.42 "HgN/A
4:00 am27 °FPassing clouds.10 mph93%29.42 "HgN/A
3:30 am27 °FPassing clouds.13 mph93%29.39 "HgN/A
3:00 am27 °FClear.13 mph93%29.39 "Hg10 mi
2:30 am27 °FPassing clouds.13 mph93%29.39 "HgN/A
2:00 am27 °FPassing clouds.15 mph93%29.39 "HgN/A
1:30 am27 °FLight snow. Overcast.10 mph93%29.36 "HgN/A
1:00 am27 °FLight snow. Overcast.15 mph100%29.36 "Hg2 mi
12:30 am28 °FLight snow. Low clouds.17 mph93%29.36 "Hg1 mi
12:00 am28 °FLight snow. Low clouds.24 mph93%29.33 "Hg6 mi
11:30 pm
Sat, Feb 25
30 °FMixture of precip. Low clouds.22 mph100%29.30 "Hg2 mi
11:00 pm34 °FLight rain. Low clouds.10 mph100%29.27 "Hg4 mi
10:30 pm34 °FLight rain. Low clouds.8 mph100%29.27 "Hg2 mi
10:00 pm34 °FLight rain. Low clouds.8 mph93%29.27 "Hg2 mi
9:30 pm32 °FRain. Low clouds.6 mph100%29.27 "Hg1 mi
9:00 pm32 °FChilly.8 mph100%29.27 "Hg1 mi
8:30 pm32 °FHeavy rain. Low clouds.6 mph100%29.30 "Hg1 mi
8:00 pm32 °FChilly.8 mph100%29.30 "Hg1 mi
7:30 pm34 °FRain. Fog.10 mph93%29.30 "Hg1 mi
7:00 pm34 °FLight rain. Low clouds.8 mph93%29.33 "Hg3 mi
6:30 pm36 °FOvercast.8 mph93%29.33 "HgN/A
6:00 pm34 °FOvercast.6 mph93%29.33 "HgN/A
5:30 pm36 °FOvercast.6 mph93%29.36 "HgN/A
5:00 pm34 °FOvercast.10 mph100%29.36 "HgN/A
4:30 pm36 °FOvercast.6 mph93%29.36 "HgN/A
4:00 pm34 °FOvercast.1 mph93%29.36 "HgN/A
3:30 pm36 °FLight rain. Overcast.10 mph87%29.36 "HgN/A
3:00 pm37 °FOvercast.10 mph87%29.36 "HgN/A
2:30 pm37 °FOvercast.15 mph87%29.36 "HgN/A
2:00 pm37 °FOvercast.15 mph87%29.33 "HgN/A
1:30 pm37 °FOvercast.13 mph87%29.33 "HgN/A
1:00 pm37 °FOvercast.10 mph87%29.33 "HgN/A
12:30 pm37 °FOvercast.13 mph87%29.33 "HgN/A
12:00 pm36 °FOvercast.13 mph93%29.33 "HgN/A
11:30 am36 °FOvercast.13 mph100%29.33 "HgN/A
11:00 am36 °FLow clouds.10 mph93%29.33 "HgN/A
10:30 am36 °FLow clouds.10 mph100%29.33 "HgN/A
10:00 am36 °FLow clouds.8 mph100%29.33 "HgN/A
9:30 am36 °FLow clouds.8 mph100%29.33 "HgN/A
9:00 am36 °FLight rain. Low clouds.10 mph100%29.30 "HgN/A
8:30 am36 °FLight rain. Low clouds.8 mph93%29.30 "HgN/A
8:00 am34 °FLow clouds.10 mph100%29.30 "HgN/A
7:30 am34 °FLow clouds.10 mph100%29.30 "HgN/A
7:00 am34 °FLight rain. Low clouds.10 mph100%29.30 "HgN/A
6:30 am34 °FLight rain. Low clouds.10 mph100%29.30 "HgN/A
6:00 am32 °FLight rain. Low clouds.8 mph100%29.27 "Hg4 mi
Weather by CustomWeather, © 2017

See weather overviewHow to use our weather pages